Regional Weather Roundup
Issued by NWS Newport/Morehead, NC

Current Version | Previous Version | Graphics & Text | Print | Product List | Glossary Off
Versions: 1 2 3 4 5 6 7 8 9 10 11 12 13 14 15 16 17 18 19 20 21 22 23 24 25 26 27 28 29 30 31 32 33 34 35 36 37 38 39 40 41 42 43 44 45 46 47 48 49 50

000
ASUS42 KMHX 290113
RWRMHX
WEATHER ROUNDUP FOR EASTERN NORTH CAROLINA
NATIONAL WEATHER SERVICE NEWPORT/MOREHEAD CITY NC
900 PM EDT SUN MAY 28 2017

NOTE: "FAIR" INDICATES FEW OR NO CLOUDS BELOW 12,000 FEET
WITH NO SIGNIFICANT WEATHER AND/OR OBSTRUCTIONS TO VISIBILITY

NCZ015>017-031-032-045>047-102-103-290200-
NORTH COAST

CITY           SKY/WX    TMP DP  RH WIND       PRES   REMARKS
EDENTON        PTCLDY    76  73  90 CALM      29.80F
ELIZABETH CITY CLEAR     72  72 100 CALM      29.79S
KITTY HAWK     CLEAR     73  72  98 CALM      29.78S
MANTEO         CLEAR     73  70  89 NW3       29.80S

$$

NCZ045>047-081-094-103-104-290200-
CENTRAL COAST

CITY           SKY/WX    TMP DP  RH WIND       PRES   REMARKS
FRISCO         CLEAR     77  72  84 SW15      29.80S

$$

NCZ095-097-098-100-101-290200-
SOUTHERN COAST

CITY           SKY/WX    TMP DP  RH WIND       PRES   REMARKS
BEAUFORT       CLEAR     77  75  93 SW17      29.81F
CEDAR ISLAND   NOT AVBL
JACKSONVILLE   TSTM      75  73  93 W8        29.83R FOG
PINEY ISLAND   CLEAR    N/A N/A N/A SW13      29.80S
WILMINGTON     CLOUDY    79  73  82 SW12      29.82S


$$

NCZ011>013-027>030-043-044-078>080-089-090>093-098-290200-
COASTAL PLAIN

CITY           SKY/WX    TMP DP  RH WIND       PRES   REMARKS
AHOSKIE        NOT AVBL
CLINTON        CLOUDY    78  72  82 SW3       29.82F
ELIZABETHTOWN  CLOUDY    75  74  96 CALM      29.81F
GOLDSBORO      CLEAR     80  66  61 SW6       29.78F
GREENVILLE     CLEAR     77  70  78 CALM      29.82S
HAVELOCK       NOT AVBL
KENANSVILLE    PTCLDY    81  68  65 SW5       29.82S
KINSTON        CLEAR     77  66  69 SW9       29.81S
NEW BERN       PTCLDY    80  72  76 SW8       29.82R
RICHLANDS      CLOUDY    76  72  87 S10       29.84R THUNDER
ROCKY MOUNT    CLOUDY    73  70  90 CALM      29.80S
WASHINGTON     CLEAR     77  69  75 CALM      29.79F
WHITEVILLE     LGT RAIN  73  71  95 SE6       29.85R

$$

AMZ130-135-150-152-154-156-158-170-250-252-270-ANZ085-086-088-633-658-670-290200-
MARINE OBSERVATIONS

STATION/POSITION TIME  TEMP    WIND        PRES    WAVE   SWELL
                       AIR SEA DIR/SP/G            HT/PER HT/PER
                 (UTC) (F)     (DEG/KT/KT) (MB)    (FT/S) (FT/S)
CHESAPEAKE LIGHT NOT AVBL
64 E VA BEACH    0050   66 65  250/  6/  6 1008.4    3/ 6   2/ 6
DUCK             0042   68 65  340/ 11/ 13 1008.2
2 E DUCK         0100      69                N/A     2/ 8
OREGON INLET     0042   77 76  310/  6/ 10 1008.5
13E OREGON INLT  0048      67                N/A     3/ 6   3/ 6
HATTERAS CG      0042   77 75  220/ 14/ 20 1008.7
DIAMOND BUOY     0050   77 76  240/ 19/ 21 1008.7    5/ 6   2/ 8
CAPE LOOKOUT     0100   76     220/ 13/ 16 1009.5
BEAUFORT LAB     0042   76 75  220/  9/ 15 1009.0
30 SE NEW RVR IN 0008   77 77  230/ 16/ 21 1010.6
30 SE NEW RVR IN 0043      77                N/A     5/ 6
27 SE WRIGHTSVLE 0008   77 77  220/ 14/ 19 1010.2
5 SE WRIGHTSVLE  0008   77 76  200/ 12/ 17 1010.2
225 S CAPE HAT   0050   77 77  210/ 14/ 16 1014.2    4/ 7   2/ 7
41 SE CHARLESTON 0050   78 76  210/ 14/ 17 1011.4    3/ 5   2/ 8

$$




USA.gov is the U.S. government's official web portal to all federal, state and local government web resources and services.